GPX7EP ESGG-BKPR

Flight info

Callsign GPX7EP
Flight time 2h 20m
Altitude 37000
Route TOPLA DCT POKEN DCT PIXOR DCT DESEN DCT VALPI DCT XOMBA DCT BAREB DCT SIVLA DCT OSLUD DCT AKIKA DCT MAVAR DCT XAXAN XAXAN1D
Aircraft A319/M-SDE3FGHIRWY/LB1

Departure

Time 2026-04-25 19:21
Airport Göteborg Landvetter Airport (ESGG)

Arrival

Time 2026-04-25 21:41
Airport Priština Adem Jashari International Airport (BKPR)
Time Latitude Longitude Altitude Speed Heading
2026-04-25 18:57 57.66533 12.29107 516 ft 0 kts 116°
2026-04-25 19:09 57.66544 12.29066 516 ft 3 kts 119°
2026-04-25 19:09 57.66550 12.29044 516 ft 3 kts 122°
2026-04-25 19:09 57.66581 12.28984 516 ft 3 kts 170°
2026-04-25 19:10 57.66592 12.28983 516 ft 1 kts 206°
2026-04-25 19:10 57.66592 12.28984 516 ft 0 kts 206°
2026-04-25 19:12 57.66588 12.28974 516 ft 5 kts 229°
2026-04-25 19:12 57.66608 12.28919 516 ft 11 kts 329°
2026-04-25 19:13 57.66655 12.28792 516 ft 13 kts 294°
2026-04-25 19:13 57.66634 12.28652 512 ft 14 kts 210°
2026-04-25 19:13 57.66544 12.28563 512 ft 15 kts 206°
2026-04-25 19:13 57.66447 12.28474 511 ft 16 kts 206°
2026-04-25 19:14 57.66344 12.28380 511 ft 17 kts 206°
2026-04-25 19:14 57.66272 12.28316 511 ft 18 kts 206°
2026-04-25 19:14 57.66118 12.28175 509 ft 19 kts 206°
2026-04-25 19:14 57.65994 12.28064 508 ft 20 kts 206°
2026-04-25 19:15 57.65864 12.27946 507 ft 22 kts 206°
2026-04-25 19:15 57.65724 12.27816 505 ft 23 kts 206°
2026-04-25 19:15 57.65579 12.27684 502 ft 24 kts 206°
2026-04-25 19:15 57.65422 12.27543 500 ft 26 kts 205°
2026-04-25 19:16 57.65256 12.27392 494 ft 27 kts 206°
2026-04-25 19:16 57.65082 12.27232 488 ft 29 kts 206°
2026-04-25 19:16 57.65021 12.27073 486 ft 15 kts 297°
2026-04-25 19:16 57.65037 12.27037 487 ft 0 kts 330°
2026-04-25 19:19 57.65038 12.27036 488 ft 1 kts 330°
2026-04-25 19:19 57.65062 12.27018 492 ft 5 kts 339°
2026-04-25 19:19 57.65101 12.26991 490 ft 7 kts 340°
2026-04-25 19:19 57.65131 12.26971 489 ft 7 kts 340°
2026-04-25 19:20 57.65194 12.26989 487 ft 7 kts 22°
2026-04-25 19:20 57.65205 12.26998 493 ft 0 kts 25°
2026-04-25 19:20 57.65220 12.27012 492 ft 14 kts 26°
2026-04-25 19:20 57.65580 12.27339 501 ft 101 kts 26°
2026-04-25 19:21 57.66441 12.28124 576 ft 166 kts 26°
2026-04-25 19:21 57.68823 12.30290 1882 ft 209 kts 24°
2026-04-25 19:21 57.70062 12.31650 3111 ft 203 kts 38°
2026-04-25 19:22 57.70685 12.34006 4209 ft 218 kts 78°
2026-04-25 19:22 57.70468 12.36922 4811 ft 234 kts 101°
2026-04-25 19:22 57.69123 12.42500 4996 ft 240 kts 121°
2026-04-25 19:23 57.67800 12.44476 5007 ft 251 kts 153°
2026-04-25 19:23 57.63973 12.45789 5029 ft 293 kts 173°
2026-04-25 19:23 57.61947 12.46273 5033 ft 294 kts 172°
2026-04-25 19:24 57.59906 12.46571 5035 ft 294 kts 180°
2026-04-25 19:24 57.57858 12.46578 5035 ft 295 kts 180°
2026-04-25 19:24 57.53702 12.46583 6822 ft 298 kts 182°
2026-04-25 19:25 57.49569 12.45411 8812 ft 303 kts 192°
2026-04-25 19:25 57.47488 12.44735 9796 ft 306 kts 192°
2026-04-25 19:25 57.45359 12.44290 10381 ft 324 kts 179°
2026-04-25 19:26 57.43100 12.45334 10692 ft 349 kts 156°
2026-04-25 19:26 57.40851 12.47242 11324 ft 360 kts 154°
2026-04-25 19:26 57.38562 12.49227 12112 ft 366 kts 155°
2026-04-25 19:26 57.36238 12.51248 12882 ft 372 kts 155°
2026-04-25 19:27 57.33872 12.53294 13670 ft 378 kts 155°
2026-04-25 19:27 57.33079 12.53976 13899 ft 380 kts 155°
2026-04-25 19:27 57.29004 12.57462 14903 ft 393 kts 155°
2026-04-25 19:27 57.26466 12.59618 15547 ft 401 kts 156°
2026-04-25 19:28 57.23933 12.61753 16243 ft 406 kts 155°
2026-04-25 19:28 57.21344 12.63930 16837 ft 413 kts 155°
2026-04-25 19:28 57.18704 12.66150 17457 ft 420 kts 155°
2026-04-25 19:28 57.16022 12.68404 18039 ft 427 kts 155°
2026-04-25 19:29 57.13295 12.70692 18566 ft 434 kts 155°
2026-04-25 19:29 57.10521 12.73016 19055 ft 441 kts 155°
2026-04-25 19:29 57.07717 12.75364 19573 ft 447 kts 154°
2026-04-25 19:29 57.04867 12.77751 20073 ft 453 kts 154°
2026-04-25 19:30 57.01976 12.80164 20579 ft 459 kts 154°
2026-04-25 19:30 56.99078 12.82576 21005 ft 466 kts 154°
2026-04-25 19:30 56.96099 12.85051 21410 ft 474 kts 154°
2026-04-25 19:30 56.93069 12.87570 21867 ft 481 kts 154°
2026-04-25 19:31 56.90000 12.90118 22333 ft 487 kts 154°
2026-04-25 19:31 56.86892 12.92694 22804 ft 493 kts 154°
2026-04-25 19:31 56.83749 12.95292 23256 ft 498 kts 154°
2026-04-25 19:31 56.80574 12.97914 23829 ft 500 kts 155°
2026-04-25 19:32 56.77405 13.00528 24450 ft 498 kts 155°
2026-04-25 19:32 56.74255 13.03115 24886 ft 500 kts 155°
2026-04-25 19:32 56.71069 13.05721 25275 ft 504 kts 155°
2026-04-25 19:32 56.69984 13.06608 25402 ft 505 kts 155°
2026-04-25 19:33 56.64602 13.11011 25857 ft 514 kts 155°
2026-04-25 19:33 56.61318 13.13687 26189 ft 519 kts 155°
2026-04-25 19:33 56.58014 13.16375 26527 ft 522 kts 155°
2026-04-25 19:33 56.54684 13.19078 26895 ft 526 kts 155°
2026-04-25 19:34 56.51333 13.21792 27232 ft 530 kts 155°
2026-04-25 19:34 56.48005 13.24480 27577 ft 533 kts 155°
2026-04-25 19:34 56.44603 13.27224 27919 ft 537 kts 155°
2026-04-25 19:34 56.41183 13.29981 28257 ft 540 kts 155°
2026-04-25 19:35 56.37731 13.32761 28502 ft 544 kts 155°
2026-04-25 19:35 56.34259 13.35550 28992 ft 545 kts 156°
2026-04-25 19:35 56.30795 13.38323 29431 ft 545 kts 156°
2026-04-25 19:35 56.27318 13.41102 29763 ft 548 kts 156°
2026-04-25 19:36 56.23824 13.43890 30060 ft 551 kts 156°
2026-04-25 19:36 56.20313 13.46685 30321 ft 553 kts 156°
2026-04-25 19:36 56.16788 13.49484 30603 ft 554 kts 156°
2026-04-25 19:36 56.13258 13.52282 30886 ft 556 kts 156°
2026-04-25 19:37 56.09717 13.55083 31132 ft 557 kts 156°
2026-04-25 19:37 56.06162 13.57887 31351 ft 559 kts 157°
2026-04-25 19:37 56.02598 13.60696 31683 ft 559 kts 157°
2026-04-25 19:37 55.99037 13.63497 32057 ft 558 kts 157°
2026-04-25 19:38 55.95490 13.66282 32453 ft 556 kts 157°
2026-04-25 19:38 55.91953 13.69057 32909 ft 554 kts 158°
2026-04-25 19:38 55.88446 13.71805 33525 ft 547 kts 158°
2026-04-25 19:38 55.84979 13.74516 34055 ft 541 kts 158°
2026-04-25 19:39 55.81583 13.77161 34454 ft 538 kts 158°
2026-04-25 19:39 55.78157 13.79820 34764 ft 536 kts 159°
2026-04-25 19:39 55.74736 13.82466 35023 ft 536 kts 159°
2026-04-25 19:39 55.71315 13.85112 35311 ft 535 kts 159°
2026-04-25 19:40 55.67908 13.87745 35608 ft 534 kts 159°
2026-04-25 19:40 55.64503 13.90370 35903 ft 532 kts 159°
2026-04-25 19:40 55.61107 13.92982 36211 ft 530 kts 159°
2026-04-25 19:40 55.57728 13.95578 36500 ft 529 kts 159°
2026-04-25 19:41 55.55493 13.97294 36682 ft 528 kts 159°
2026-04-25 19:41 55.51028 14.00715 36859 ft 526 kts 159°
2026-04-25 19:41 55.46536 14.04155 36901 ft 525 kts 159°
2026-04-25 19:42 55.38768 14.10077 36867 ft 522 kts 160°
2026-04-25 19:42 55.32094 14.15130 36868 ft 522 kts 160°
2026-04-25 19:43 55.25416 14.20167 36874 ft 522 kts 160°
2026-04-25 19:43 55.18738 14.25188 36870 ft 522 kts 160°
2026-04-25 19:44 55.12053 14.30205 36875 ft 522 kts 160°
2026-04-25 19:44 55.05391 14.35190 36878 ft 523 kts 160°
2026-04-25 19:45 54.98698 14.40181 36901 ft 522 kts 160°
2026-04-25 19:45 54.92017 14.45132 36849 ft 521 kts 160°
2026-04-25 19:46 54.85349 14.50067 36857 ft 521 kts 160°
2026-04-25 19:46 54.78684 14.54972 36876 ft 521 kts 160°
2026-04-25 19:47 54.72028 14.59849 36881 ft 521 kts 160°
2026-04-25 19:47 54.65331 14.64740 36882 ft 521 kts 160°
2026-04-25 19:48 54.58651 14.69601 36876 ft 522 kts 161°
2026-04-25 19:48 54.51992 14.74427 36883 ft 522 kts 161°
2026-04-25 19:49 54.46388 14.78486 36886 ft 521 kts 161°
2026-04-25 19:49 54.38611 14.84113 36896 ft 521 kts 161°
2026-04-25 19:50 54.28558 14.91333 36851 ft 522 kts 161°
2026-04-25 19:51 54.21841 14.96133 36877 ft 523 kts 161°
2026-04-25 19:51 54.15170 15.00873 36918 ft 523 kts 162°
2026-04-25 19:52 54.08442 15.05640 36910 ft 522 kts 162°
2026-04-25 19:52 54.01728 15.10386 36878 ft 522 kts 162°
2026-04-25 19:53 53.95017 15.15111 36898 ft 522 kts 162°
2026-04-25 19:53 53.88297 15.19844 36915 ft 522 kts 162°
2026-04-25 19:54 53.81572 15.24554 36911 ft 522 kts 162°
2026-04-25 19:54 53.74892 15.29196 36883 ft 521 kts 163°
2026-04-25 19:55 53.68174 15.33863 36898 ft 522 kts 163°
2026-04-25 19:55 53.61448 15.38523 36921 ft 523 kts 163°
2026-04-25 19:56 53.54715 15.43177 36933 ft 522 kts 163°
2026-04-25 19:56 53.47983 15.47809 36871 ft 521 kts 163°
2026-04-25 19:57 53.41256 15.52419 36920 ft 521 kts 163°
2026-04-25 19:57 53.34540 15.56997 36930 ft 521 kts 163°
2026-04-25 19:58 53.27833 15.61557 36937 ft 519 kts 163°
2026-04-25 19:58 53.21175 15.66080 36856 ft 519 kts 163°
2026-04-25 19:59 53.14501 15.70597 36933 ft 516 kts 164°
2026-04-25 19:59 53.07850 15.75078 36943 ft 515 kts 164°
2026-04-25 20:00 53.01237 15.79514 36943 ft 515 kts 164°
2026-04-25 20:00 52.94598 15.83958 36945 ft 514 kts 164°
2026-04-25 20:01 52.84642 15.90598 36952 ft 513 kts 165°
2026-04-25 20:01 52.78030 15.94987 36947 ft 511 kts 165°
2026-04-25 20:02 52.71426 15.99359 36951 ft 511 kts 165°
2026-04-25 20:02 52.64826 16.03716 36898 ft 510 kts 165°
2026-04-25 20:03 52.58259 16.08038 36921 ft 508 kts 164°
2026-04-25 20:03 52.51734 16.12314 36937 ft 507 kts 165°
2026-04-25 20:04 52.45185 16.16582 36961 ft 506 kts 165°
2026-04-25 20:04 52.38619 16.20841 36951 ft 506 kts 165°
2026-04-25 20:05 52.32076 16.25087 36940 ft 506 kts 165°
2026-04-25 20:05 52.25539 16.29323 36937 ft 505 kts 165°
2026-04-25 20:06 52.18988 16.33553 36941 ft 508 kts 165°
2026-04-25 20:06 52.12338 16.37808 36926 ft 519 kts 165°
2026-04-25 20:07 52.05583 16.42123 36924 ft 522 kts 165°
2026-04-25 20:07 51.98839 16.46448 36914 ft 520 kts 165°
2026-04-25 20:08 51.92129 16.50728 36917 ft 520 kts 165°
2026-04-25 20:08 51.85383 16.55004 36921 ft 520 kts 165°
2026-04-25 20:09 51.78641 16.59267 36914 ft 519 kts 165°
2026-04-25 20:09 51.71913 16.63504 36930 ft 519 kts 165°
2026-04-25 20:10 51.65192 16.67723 36945 ft 518 kts 165°
2026-04-25 20:10 51.58461 16.71954 36935 ft 517 kts 165°
2026-04-25 20:11 51.51774 16.76136 36900 ft 517 kts 164°
2026-04-25 20:11 51.45060 16.80310 36909 ft 517 kts 164°
2026-04-25 20:12 51.38398 16.84445 36914 ft 517 kts 165°
2026-04-25 20:12 51.33907 16.87216 36917 ft 517 kts 165°
2026-04-25 20:13 51.24971 16.92718 36927 ft 517 kts 164°
2026-04-25 20:13 51.18243 16.96860 36933 ft 517 kts 164°
2026-04-25 20:14 51.11517 17.00977 36933 ft 517 kts 164°
2026-04-25 20:14 51.04795 17.05082 36936 ft 517 kts 164°
2026-04-25 20:15 50.98075 17.09184 36927 ft 516 kts 163°
2026-04-25 20:15 50.91418 17.13225 36953 ft 515 kts 163°
2026-04-25 20:16 50.84737 17.17277 36969 ft 513 kts 164°
2026-04-25 20:16 50.78070 17.21292 36963 ft 511 kts 164°
2026-04-25 20:17 50.71439 17.25281 36942 ft 509 kts 163°
2026-04-25 20:17 50.64813 17.29247 36959 ft 508 kts 163°
2026-04-25 20:18 50.58257 17.33160 36952 ft 506 kts 163°
2026-04-25 20:18 50.51668 17.37088 36952 ft 506 kts 163°
2026-04-25 20:19 50.45090 17.41000 36955 ft 505 kts 164°
2026-04-25 20:19 50.38502 17.44895 36961 ft 505 kts 164°
2026-04-25 20:20 50.31914 17.48796 36946 ft 505 kts 164°
2026-04-25 20:20 50.25319 17.52320 36943 ft 499 kts 172°
2026-04-25 20:21 50.18554 17.54732 36921 ft 499 kts 172°
2026-04-25 20:21 50.11770 17.57121 36936 ft 499 kts 172°
2026-04-25 20:22 50.07235 17.58718 36934 ft 499 kts 172°
2026-04-25 20:22 49.98210 17.61904 36913 ft 500 kts 172°
2026-04-25 20:23 49.91432 17.64299 36948 ft 498 kts 172°
2026-04-25 20:23 49.84674 17.66691 36958 ft 498 kts 172°
2026-04-25 20:24 49.77929 17.69056 36964 ft 497 kts 172°
2026-04-25 20:24 49.71184 17.71399 36963 ft 496 kts 172°
2026-04-25 20:25 49.64490 17.73731 36962 ft 496 kts 172°
2026-04-25 20:25 49.57761 17.76064 36961 ft 496 kts 172°
2026-04-25 20:26 49.51024 17.78392 36959 ft 496 kts 172°
2026-04-25 20:26 49.44296 17.80719 36948 ft 495 kts 172°
2026-04-25 20:27 49.37574 17.83044 36976 ft 495 kts 172°
2026-04-25 20:27 49.30859 17.85348 36976 ft 494 kts 173°
2026-04-25 20:28 49.25279 17.87250 36978 ft 494 kts 172°
2026-04-25 20:28 49.18568 17.89539 36964 ft 492 kts 172°
2026-04-25 20:29 49.10805 17.92194 36979 ft 491 kts 172°
2026-04-25 20:29 49.05217 17.94101 36985 ft 491 kts 172°
2026-04-25 20:30 48.98556 17.95383 36954 ft 482 kts 182°
2026-04-25 20:30 48.91849 17.95969 36968 ft 482 kts 182°
2026-04-25 20:31 48.85138 17.96574 36975 ft 482 kts 182°
2026-04-25 20:31 48.78431 17.97185 36981 ft 482 kts 182°
2026-04-25 20:32 48.71729 17.97782 36974 ft 482 kts 182°
2026-04-25 20:32 48.65074 17.98373 36980 ft 482 kts 182°
2026-04-25 20:33 48.58365 17.98970 36981 ft 482 kts 182°
2026-04-25 20:33 48.52806 17.99470 36957 ft 481 kts 181°
2026-04-25 20:34 48.44991 18.00166 36968 ft 480 kts 182°
2026-04-25 20:34 48.38315 18.00746 36971 ft 479 kts 182°
2026-04-25 20:35 48.31659 18.01338 36946 ft 479 kts 182°
2026-04-25 20:35 48.25055 18.01923 36957 ft 478 kts 182°
2026-04-25 20:36 48.18403 18.02496 36962 ft 478 kts 182°
2026-04-25 20:36 48.11750 18.03063 36969 ft 478 kts 182°
2026-04-25 20:37 48.05102 18.03646 36956 ft 478 kts 181°
2026-04-25 20:37 47.98465 18.04227 36961 ft 478 kts 182°
2026-04-25 20:38 47.91824 18.04806 36963 ft 477 kts 182°
2026-04-25 20:38 47.85185 18.05371 36953 ft 477 kts 182°
2026-04-25 20:39 47.78565 18.05945 36977 ft 476 kts 182°
2026-04-25 20:39 47.73074 18.06503 36987 ft 476 kts 180°
2026-04-25 20:40 47.65419 18.07873 36984 ft 477 kts 177°
2026-04-25 20:40 47.58835 18.09222 36985 ft 476 kts 178°
2026-04-25 20:41 47.52283 18.10466 36990 ft 474 kts 178°
2026-04-25 20:41 47.45743 18.11623 36992 ft 473 kts 179°
2026-04-25 20:42 47.39212 18.12769 36990 ft 472 kts 178°
2026-04-25 20:42 47.32684 18.13934 37002 ft 472 kts 179°
2026-04-25 20:43 47.26158 18.15097 36996 ft 472 kts 179°
2026-04-25 20:43 47.19673 18.16245 36991 ft 472 kts 179°
2026-04-25 20:44 47.13144 18.17404 36979 ft 472 kts 179°
2026-04-25 20:44 47.06609 18.18555 36989 ft 472 kts 179°
2026-04-25 20:45 47.00135 18.19699 36988 ft 472 kts 179°
2026-04-25 20:45 46.93622 18.20858 36975 ft 471 kts 179°
2026-04-25 20:46 46.87112 18.22012 36986 ft 471 kts 179°
2026-04-25 20:46 46.80603 18.23147 36990 ft 471 kts 179°
2026-04-25 20:47 46.74081 18.24283 36963 ft 472 kts 179°
2026-04-25 20:47 46.67559 18.25426 36974 ft 472 kts 179°
2026-04-25 20:48 46.61028 18.26560 36976 ft 472 kts 179°
2026-04-25 20:48 46.54499 18.27682 36987 ft 472 kts 179°
2026-04-25 20:49 46.47973 18.28817 36965 ft 472 kts 179°
2026-04-25 20:49 46.41477 18.29948 36977 ft 472 kts 179°
2026-04-25 20:50 46.34950 18.31065 36984 ft 472 kts 179°
2026-04-25 20:50 46.28424 18.32183 36977 ft 473 kts 179°
2026-04-25 20:51 46.21892 18.33312 36996 ft 473 kts 178°
2026-04-25 20:51 46.15360 18.34433 37013 ft 472 kts 179°
2026-04-25 20:52 46.09938 18.35359 36999 ft 472 kts 179°
2026-04-25 20:52 46.02303 18.36653 37006 ft 472 kts 179°
2026-04-25 20:53 45.95779 18.37759 37011 ft 472 kts 179°
2026-04-25 20:53 45.89287 18.38864 37004 ft 472 kts 179°
2026-04-25 20:54 45.82757 18.39969 37000 ft 472 kts 179°
2026-04-25 20:54 45.76233 18.41061 36996 ft 471 kts 179°
2026-04-25 20:55 45.69751 18.41111 36994 ft 464 kts 187°
2026-04-25 20:55 45.63285 18.40781 36988 ft 464 kts 187°
2026-04-25 20:56 45.56824 18.40451 36993 ft 464 kts 187°
2026-04-25 20:56 45.50402 18.40136 36998 ft 464 kts 187°
2026-04-25 20:57 45.43936 18.39821 36983 ft 464 kts 187°
2026-04-25 20:57 45.37481 18.39498 36991 ft 464 kts 187°
2026-04-25 20:58 45.31021 18.39187 36997 ft 464 kts 187°
2026-04-25 20:58 45.24560 18.38870 36999 ft 464 kts 187°
2026-04-25 20:59 45.18152 18.38549 36999 ft 464 kts 187°
2026-04-25 20:59 45.11689 18.38260 36993 ft 465 kts 185°
2026-04-25 21:00 45.07340 18.38880 36992 ft 473 kts 174°
2026-04-25 21:01 44.95478 18.41939 36997 ft 473 kts 174°
2026-04-25 21:01 44.89099 18.43570 37002 ft 473 kts 174°
2026-04-25 21:02 44.82615 18.45213 36996 ft 473 kts 174°
2026-04-25 21:02 44.76176 18.46845 37010 ft 473 kts 174°
2026-04-25 21:03 44.69698 18.48486 37021 ft 473 kts 174°
2026-04-25 21:03 44.63206 18.50124 37008 ft 473 kts 174°
2026-04-25 21:04 44.56720 18.51759 37015 ft 473 kts 174°
2026-04-25 21:04 44.50247 18.53392 37027 ft 474 kts 174°
2026-04-25 21:05 44.43758 18.55024 37017 ft 474 kts 174°
2026-04-25 21:05 44.37265 18.56650 37029 ft 473 kts 174°
2026-04-25 21:06 44.30815 18.58265 37035 ft 473 kts 174°
2026-04-25 21:06 44.24325 18.59886 37040 ft 473 kts 174°
2026-04-25 21:07 44.17834 18.61512 37049 ft 473 kts 174°
2026-04-25 21:07 44.11352 18.63121 37057 ft 473 kts 174°
2026-04-25 21:08 44.07057 18.64178 37065 ft 473 kts 174°
2026-04-25 21:08 44.00139 18.65885 37056 ft 473 kts 173°
2026-04-25 21:09 43.90420 18.68279 37068 ft 473 kts 173°
2026-04-25 21:09 43.83963 18.69878 37056 ft 473 kts 173°
2026-04-25 21:10 43.77499 18.71466 37052 ft 473 kts 173°
2026-04-25 21:10 43.72099 18.72783 37058 ft 473 kts 173°
2026-04-25 21:11 43.65598 18.74371 37070 ft 473 kts 173°
2026-04-25 21:11 43.58436 18.76121 37066 ft 473 kts 173°
2026-04-25 21:12 43.51941 18.77706 37069 ft 473 kts 173°
2026-04-25 21:12 43.47718 18.79328 37071 ft 478 kts 160°
2026-04-25 21:13 43.42821 18.83033 37074 ft 482 kts 149°
2026-04-25 21:13 43.40004 18.85520 37065 ft 482 kts 149°
2026-04-25 21:13 43.34352 18.90488 37077 ft 482 kts 149°
2026-04-25 21:14 43.28740 18.95406 37076 ft 481 kts 149°
2026-04-25 21:14 43.23086 19.00344 37082 ft 481 kts 149°
2026-04-25 21:15 43.18378 19.04453 37084 ft 482 kts 149°
2026-04-25 21:15 43.12715 19.09382 37087 ft 482 kts 149°
2026-04-25 21:16 43.07055 19.14300 37092 ft 482 kts 149°
2026-04-25 21:16 43.01390 19.19217 37087 ft 482 kts 149°
2026-04-25 21:17 42.95726 19.24118 37075 ft 482 kts 149°
2026-04-25 21:17 42.90057 19.29020 37081 ft 482 kts 149°
2026-04-25 21:18 42.84385 19.33905 37080 ft 482 kts 149°
2026-04-25 21:18 42.78708 19.38770 37074 ft 482 kts 149°
2026-04-25 21:19 42.73033 19.43638 37065 ft 482 kts 149°
2026-04-25 21:19 42.67361 19.48503 37067 ft 482 kts 148°
2026-04-25 21:20 42.62640 19.52540 37068 ft 482 kts 149°
2026-04-25 21:20 42.56030 19.58166 37061 ft 482 kts 149°
2026-04-25 21:21 42.50586 19.63461 37055 ft 482 kts 141°
2026-04-25 21:21 42.45354 19.69174 37069 ft 482 kts 141°
2026-04-25 21:22 42.40115 19.74867 37061 ft 482 kts 141°
2026-04-25 21:22 42.34880 19.80535 37067 ft 482 kts 141°
2026-04-25 21:23 42.29638 19.86196 37065 ft 482 kts 141°
2026-04-25 21:23 42.24410 19.91839 37065 ft 482 kts 141°
2026-04-25 21:24 42.19218 19.97436 37071 ft 482 kts 141°
2026-04-25 21:24 42.13967 20.03086 36699 ft 484 kts 141°
2026-04-25 21:25 42.11320 20.05927 35869 ft 486 kts 141°
2026-04-25 21:25 42.08688 20.08744 35373 ft 483 kts 141°
2026-04-25 21:25 42.03433 20.14348 35731 ft 480 kts 141°
2026-04-25 21:26 42.00796 20.17159 35199 ft 489 kts 141°
2026-04-25 21:26 41.98134 20.19999 34586 ft 486 kts 141°
2026-04-25 21:26 41.95490 20.22816 34241 ft 484 kts 141°
2026-04-25 21:26 41.92849 20.25632 34376 ft 483 kts 141°
2026-04-25 21:27 41.90224 20.28431 34672 ft 484 kts 141°
2026-04-25 21:27 41.87593 20.31230 33793 ft 491 kts 141°
2026-04-25 21:27 41.84925 20.34064 33087 ft 488 kts 141°
2026-04-25 21:27 41.82271 20.36878 32822 ft 485 kts 141°
2026-04-25 21:28 41.79625 20.39678 33215 ft 483 kts 141°
2026-04-25 21:28 41.76967 20.42486 32562 ft 488 kts 141°
2026-04-25 21:28 41.74312 20.45292 31611 ft 484 kts 140°
2026-04-25 21:28 41.71948 20.48447 30703 ft 479 kts 124°
2026-04-25 21:29 41.70496 20.52421 29759 ft 475 kts 104°
2026-04-25 21:29 41.70152 20.56784 28723 ft 472 kts 83°
2026-04-25 21:29 41.70948 20.61014 27735 ft 471 kts 63°
2026-04-25 21:29 41.72629 20.64760 26779 ft 473 kts 52°
2026-04-25 21:30 41.74762 20.68113 25849 ft 472 kts 45°
2026-04-25 21:30 41.77071 20.71231 24952 ft 468 kts 43°
2026-04-25 21:30 41.79333 20.74256 24092 ft 463 kts 44°
2026-04-25 21:30 41.80822 20.76362 23498 ft 460 kts 46°
2026-04-25 21:31 41.83573 20.80629 22186 ft 452 kts 50°
2026-04-25 21:31 41.85509 20.83920 21241 ft 446 kts 51°
2026-04-25 21:31 41.87367 20.87218 20314 ft 440 kts 52°
2026-04-25 21:31 41.89193 20.90492 19411 ft 435 kts 52°
2026-04-25 21:32 41.91007 20.93710 18543 ft 430 kts 52°
2026-04-25 21:32 41.92826 20.96881 17589 ft 425 kts 51°
2026-04-25 21:32 41.94635 20.99988 16633 ft 419 kts 51°
2026-04-25 21:32 41.96428 21.03043 15704 ft 414 kts 51°
2026-04-25 21:33 41.98202 21.06056 14806 ft 409 kts 50°
2026-04-25 21:33 41.99956 21.09041 14294 ft 405 kts 51°
2026-04-25 21:33 42.01698 21.12021 14105 ft 405 kts 51°
2026-04-25 21:33 42.03436 21.15003 14026 ft 404 kts 51°
2026-04-25 21:34 42.05172 21.17987 14044 ft 405 kts 51°
2026-04-25 21:34 42.06913 21.20962 14045 ft 405 kts 49°
2026-04-25 21:34 42.08983 21.23507 14045 ft 403 kts 32°
2026-04-25 21:34 42.11503 21.25141 14042 ft 401 kts 16°
2026-04-25 21:35 42.14245 21.25685 14049 ft 399 kts 359°
2026-04-25 21:35 42.16986 21.25160 13726 ft 398 kts 344°
2026-04-25 21:35 42.19500 21.23642 12827 ft 392 kts 330°
2026-04-25 21:35 42.21840 21.21862 11956 ft 379 kts 330°
2026-04-25 21:36 42.24100 21.20142 11132 ft 366 kts 330°
2026-04-25 21:36 42.26265 21.18502 10321 ft 355 kts 330°
2026-04-25 21:36 42.28393 21.16899 9474 ft 345 kts 330°
2026-04-25 21:36 42.30474 21.15342 8589 ft 336 kts 330°
2026-04-25 21:37 42.32496 21.13834 7731 ft 328 kts 330°
2026-04-25 21:37 42.33811 21.12855 7173 ft 324 kts 330°
2026-04-25 21:37 42.36420 21.10909 6049 ft 317 kts 330°
2026-04-25 21:37 42.38312 21.09491 5202 ft 312 kts 330°
2026-04-25 21:38 42.40199 21.08072 4398 ft 308 kts 330°
2026-04-25 21:38 42.42013 21.06706 4106 ft 287 kts 330°
2026-04-25 21:38 42.43682 21.05459 3995 ft 260 kts 333°
2026-04-25 21:38 42.45279 21.04826 3989 ft 224 kts 355°
2026-04-25 21:39 42.46797 21.04629 3739 ft 211 kts 357°
2026-04-25 21:39 42.48198 21.04481 3558 ft 192 kts 357°
2026-04-25 21:39 42.49456 21.04343 3432 ft 169 kts 357°
2026-04-25 21:39 42.50549 21.04235 3269 ft 151 kts 358°
2026-04-25 21:40 42.51566 21.04128 2985 ft 143 kts 360°
2026-04-25 21:40 42.52542 21.04045 2712 ft 138 kts 358°
2026-04-25 21:40 42.53493 21.03954 2438 ft 136 kts 359°
2026-04-25 21:40 42.54431 21.03870 2220 ft 134 kts 357°
2026-04-25 21:41 42.55355 21.03779 2033 ft 132 kts 357°
2026-04-25 21:41 42.56275 21.03689 1845 ft 137 kts 357°
2026-04-25 21:41 42.57178 21.03604 1781 ft 115 kts 357°
2026-04-25 21:41 42.57584 21.03572 1777 ft 0 kts 355°
2026-04-25 21:42 42.57686 21.03553 1773 ft 0 kts 357°